Darstellungsparameter: Aktuell verwendete Einstellungen:
Skalierung der Graphiken ... ?
xyx+y,   Skalierungsfaktor:      Skalierung: Modus: x, Faktor: 1
Darstellungszeitraum ... ?
Vom - - bis: - -   Zeitraum: 19.01.2021 - 19.01.2021
Min/Max/Avg-Anzeige ... ?
Zeige MMA aktuell
Zeige MMA Monat
Zeige MMA alles
Zeige --A aktuell
Zeige --A Monat
Zeige --A alles
Keine MMA-Anzeige
MMA:
Minimum Maximum Average (ber die Originaldaten)
MMA-Basis: 14.04.2020 - 16.05.2020
Quicknavigation für Darstellung... ?
Tage:      1T, 2T, 3T, 5T -1T -2T -3T -5T +1T +2T +3T +5T
Wochen: 1W, 2W, 3W -1W -2W -3W +1W +2W +3W
Monate: 1M, 3M, 6M -1M -3M -6M +1M +3M +6M
Jahre:    1J, 3J, 5J, 10J -1J -3J -5J -10J +1J +3J +5J +10J
Nutze für die Darstellung ... ?
Originaldaten oder Mittelwerte auf ...
Stundenbasis Tagesbasis Wochenbasis
Monatsbasis Jahresbasis      Datenbasis: Original-Daten
Darstellen als:
Statistik (Auto) Statistik J:M      Darstellung:

Der gewünschte Datumsbereich war nicht gültig/verfügbar und wurde korrigiert....
Das angegebene Enddatum (14.05.2023 23:59:59) liegt in der Zukunft.
Das angegebene Startdatum (08.05.2023 00:00:00) liegt in der Zukunft.


Zur Graphik,    zurück zur Übersicht aller Sensoren.
 
Tabellarische Datenbersicht: ?
 
Sensor: Nr:Datum:Temp:Abs-Feuchte:Windchill:Wind:
Aussen-T/F 1 19-01-2021 01:00:00 5.2 C 5.92 g/m*3 2.34 C 12.9 km/h
2 19-01-2021 01:05:00 5.2 C 5.92 g/m*3 2.34 C 12.9 km/h
3 19-01-2021 01:10:00 5.2 C 5.92 g/m*3 2.07 C 14.5 km/h
4 19-01-2021 01:15:00 5.2 C 5.92 g/m*3 2.96 C 9.7 km/h
5 19-01-2021 01:20:00 5.1 C 5.88 g/m*3 1.71 C 16.1 km/h
6 19-01-2021 01:25:00 5.1 C 5.88 g/m*3 1.71 C 16.1 km/h
7 19-01-2021 01:30:00 5 C 5.84 g/m*3 1.36 C 17.7 km/h
8 19-01-2021 01:35:00 4.9 C 5.81 g/m*3 0.83 C 20.9 km/h
9 19-01-2021 01:40:00 4.9 C 5.74 g/m*3 1.46 C 16.1 km/h
10 19-01-2021 01:45:00 4.8 C 5.7 g/m*3 1.11 C 17.7 km/h
11 19-01-2021 01:50:00 4.8 C 5.7 g/m*3 1.11 C 17.7 km/h
12 19-01-2021 01:55:00 4.8 C 5.7 g/m*3 0.52 C 22.5 km/h
13 19-01-2021 02:00:00 4.8 C 5.7 g/m*3 0.9 C 19.3 km/h
14 19-01-2021 02:05:00 4.8 C 5.7 g/m*3 1.11 C 17.7 km/h
15 19-01-2021 02:10:00 4.7 C 5.66 g/m*3 1.46 C 14.5 km/h
16 19-01-2021 02:15:00 4.7 C 5.66 g/m*3 0.78 C 19.3 km/h
17 19-01-2021 02:20:00 4.7 C 5.66 g/m*3 1.46 C 14.5 km/h
18 19-01-2021 02:25:00 4.7 C 5.66 g/m*3 2.03 C 11.3 km/h
19 19-01-2021 02:30:00 4.6 C 5.56 g/m*3 1.09 C 16.1 km/h
20 19-01-2021 02:35:00 4.6 C 5.62 g/m*3 2.64 C 8.1 km/h
21 19-01-2021 02:40:00 4.6 C 5.62 g/m*3 1.61 C 12.9 km/h
22 19-01-2021 02:45:00 4.6 C 5.62 g/m*3 1.61 C 12.9 km/h
23 19-01-2021 02:50:00 4.6 C 5.62 g/m*3 2.25 C 9.7 km/h
24 19-01-2021 02:55:00 4.6 C 5.62 g/m*3 2.25 C 9.7 km/h
25 19-01-2021 03:00:00 4.6 C 5.56 g/m*3 1.91 C 11.3 km/h
Sensor: Nr:Datum:Temp:Abs-Feuchte:Windchill:Wind:
Aussen-T/F 26 19-01-2021 03:05:00 4.6 C 5.56 g/m*3 2.64 C 8.1 km/h
27 19-01-2021 03:10:00 4.6 C 5.62 g/m*3 4.6 C 3.2 km/h
28 19-01-2021 03:15:00 4.5 C 5.52 g/m*3 3.02 C 6.4 km/h
29 19-01-2021 03:20:00 4.5 C 5.52 g/m*3 2.52 C 8.1 km/h
30 19-01-2021 03:25:00 4.5 C 5.52 g/m*3 2.52 C 8.1 km/h
31 19-01-2021 03:30:00 4.5 C 5.52 g/m*3 4.5 C 1.6 km/h
32 19-01-2021 03:35:00 4.4 C 5.55 g/m*3 1.67 C 11.3 km/h
33 19-01-2021 03:40:00 4.4 C 5.55 g/m*3 4.4 C 3.2 km/h
34 19-01-2021 03:45:00 4.4 C 5.55 g/m*3 4.4 C 0 km/h
35 19-01-2021 03:50:00 4.4 C 5.55 g/m*3 4.4 C 3.2 km/h
36 19-01-2021 03:55:00 4.3 C 5.51 g/m*3 4.3 C 3.2 km/h
37 19-01-2021 04:00:00 4.3 C 5.58 g/m*3 4.3 C 1.6 km/h
38 19-01-2021 04:05:00 4.2 C 5.54 g/m*3 4.2 C 4.8 km/h
39 19-01-2021 04:10:00 4.2 C 5.54 g/m*3 4.2 C 1.6 km/h
40 19-01-2021 04:15:00 4.2 C 5.54 g/m*3 2.67 C 6.4 km/h
41 19-01-2021 04:20:00 4.2 C 5.54 g/m*3 4.2 C 0 km/h
42 19-01-2021 04:25:00 4.1 C 5.5 g/m*3 4.1 C 4.8 km/h
43 19-01-2021 04:30:00 4.1 C 5.5 g/m*3 4.1 C 1.6 km/h
44 19-01-2021 04:35:00 4.1 C 5.5 g/m*3 2.05 C 8.1 km/h
45 19-01-2021 04:40:00 4.2 C 5.48 g/m*3 1.77 C 9.7 km/h
46 19-01-2021 04:45:00 4.3 C 5.51 g/m*3 1.89 C 9.7 km/h
47 19-01-2021 04:50:00 4.3 C 5.45 g/m*3 4.3 C 3.2 km/h
48 19-01-2021 04:55:00 4.4 C 5.48 g/m*3 2.4 C 8.1 km/h
49 19-01-2021 05:00:00 4.4 C 5.42 g/m*3 4.4 C 4.8 km/h
50 19-01-2021 05:05:00 4.4 C 5.42 g/m*3 2.01 C 9.7 km/h
Sensor: Nr:Datum:Temp:Abs-Feuchte:Windchill:Wind:
Aussen-T/F 51 19-01-2021 05:10:00 4.4 C 5.42 g/m*3 2.9 C 6.4 km/h
52 19-01-2021 05:15:00 4.3 C 5.32 g/m*3 1.24 C 12.9 km/h
53 19-01-2021 05:20:00 4.4 C 5.35 g/m*3 1.09 C 14.5 km/h
54 19-01-2021 05:25:00 4.5 C 5.39 g/m*3 1.48 C 12.9 km/h
55 19-01-2021 05:30:00 4.4 C 5.35 g/m*3 2.9 C 6.4 km/h
56 19-01-2021 05:35:00 4.4 C 5.29 g/m*3 0.61 C 17.7 km/h
57 19-01-2021 05:40:00 4.6 C 5.36 g/m*3 1.91 C 11.3 km/h
58 19-01-2021 05:45:00 4.6 C 5.36 g/m*3 2.25 C 9.7 km/h
59 19-01-2021 05:50:00 4.6 C 5.36 g/m*3 0.45 C 20.9 km/h
60 19-01-2021 05:55:00 4.7 C 5.4 g/m*3 1.73 C 12.9 km/h
61 19-01-2021 06:00:00 4.8 C 5.36 g/m*3 1.11 C 17.7 km/h
62 19-01-2021 06:05:00 4.9 C 5.33 g/m*3 0.83 C 20.9 km/h
63 19-01-2021 06:10:00 5.1 C 5.4 g/m*3 0.74 C 24.1 km/h
64 19-01-2021 06:15:00 5.2 C 5.44 g/m*3 1.61 C 17.7 km/h
65 19-01-2021 06:20:00 5.2 C 5.44 g/m*3 2.96 C 9.7 km/h
66 19-01-2021 06:25:00 5.2 C 5.44 g/m*3 1.03 C 22.5 km/h
67 19-01-2021 06:30:00 5.2 C 5.37 g/m*3 2.07 C 14.5 km/h

Legende:
   Min
   Max


Maximal/Minimal-Werte vom 14.04.2020 - 16.05.2020

Sensor Min Max Avg
Temp
(Aussen-T/F)
-0.1 °C
15-04-2020  06:55:00
26.2 °C
17-04-2020  18:05:00
11.98 °C

Die Daten stammen von einer Davis Vantage Pro 2 Wetter-Station und werden unter Linux mit der Software wview2wettercgi und aufbereitet. Alle Angaben erfolgen ohne Gewähr für ihre Vollständigkeit oder Richtigkeit.
Kontakt: Rainer Krienke krienke@uni-koblenz.de . Meine Webseiten an der Uni Koblenz oder privat.
Version: $Revision: 0.78 $